Powrót do katalogu

BREEZE-M R/B

LostHEO
NORAD 32709·ROCKET BODY·🇷🇺 Russia

Wystrzelony Mar 14, 2008 z Baikonur Cosmodrome

Loading…

Następne Przeloty (najbliższe 24 godziny)

TLE

NieaktualneSource: Space-Track

Epoka: Apr 1, 2026, 23:01 UTC

1 32709U 08011B   26091.95920100 -.00000925  00000-0 -44403-2 0  9990
2 32709  49.3374 337.6132 6513507 241.9231  38.8530  3.09678068143874

Śledź BREEZE-M R/B w czasie rzeczywistym z AllMySat

Download on the App Store